Change the Weather History Date:

Monday, March 3, 2014

  Actual Average (KMRF) Record (KMRF)
Temperature  
Mean Temperature 54 °F -  
Max Temperature 63 °F 61 °F 82 °F (2009)
Min Temperature 44 °F 30 °F 12 °F (2002)
Degree Days  
Heating Degree Days 12    
Growing Degree Days 4 (Base 50)    
Moisture  
Dew Point 28 °F    
Average Humidity 37    
Maximum Humidity 52    
Minimum Humidity 28    
Precipitation  
Precipitation 0.00 in - - ()
Sea Level Pressure  
Sea Level Pressure 30.09 in    
Wind  
Wind Speed 11 mph (NE)    
Max Wind Speed 21 mph    
Max Gust Speed 26 mph    
Visibility 10 miles    
Events      
Averages and records for this station are not official NWS values.
T = Trace of Precipitation, MM = Missing Value Source: NWS Daily Summary

Daily Weather History Graph

Daily Weather History Graph

Search for Another Location

Airport or City:

Trip Planner

Search our weather history database for the weather conditions in past years. The results will help you decide how hot, cold, wet, or windy it might be!

Date:

Astronomy

Mar. 03, 2014 Rise Set
Actual Time 7:20 AM CST 6:58 PM CST
Civil Twilight 6:56 AM CST 7:22 PM CST
Nautical Twilight 6:29 AM CST 7:49 PM CST
Astronomical Twilight 6:01 AM CST 8:17 PM CST
Moon 8:45 AM CST (3/3) 9:46 PM CST (3/3)
Length of Visible Light 12h 25m
Length of Day
11h 37m
Waxing Crescent, 8% of the Moon is Illuminated
Mar 3
Waxing Crescent
Mar 8
First Quarter
Mar 16
Full
Mar 23
Last Quarter
Mar 30
New

Hourly Weather History & Observations

Time (CST) Temp. Windchill Dew Point Humidity Pressure Visibility Wind Dir Wind Speed Gust Speed Precip Events Conditions
12:15 AM 62.1 °F - 32.0 °F 32% 30.06 in 10.0 mi North 13.8 mph - N/A   Clear
12:35 AM 61.7 °F - 32.0 °F 33% 30.06 in 10.0 mi North 10.4 mph - N/A   Clear
12:55 AM 61.0 °F - 32.0 °F 34% 30.07 in 10.0 mi NNE 8.1 mph - N/A   Clear
1:15 AM 60.1 °F - 31.6 °F 34% 30.08 in 10.0 mi Calm Calm - N/A   Clear
1:35 AM 59.9 °F - 31.1 °F 34% 30.09 in 10.0 mi Calm Calm - N/A   Clear
1:55 AM 58.6 °F - 31.1 °F 35% 30.09 in 10.0 mi Calm Calm - N/A   Clear
2:15 AM 56.7 °F - 29.8 °F 36% 30.10 in 10.0 mi East 6.9 mph - N/A   Clear
2:35 AM 55.4 °F - 30.0 °F 38% 30.10 in 10.0 mi NE 8.1 mph 20.7 mph N/A   Clear
2:55 AM 54.0 °F - 30.2 °F 40% 30.10 in 10.0 mi NE 15.0 mph - N/A   Clear
3:15 AM 53.6 °F - 30.9 °F 42% 30.11 in 10.0 mi NNE 11.5 mph - N/A   Clear
3:35 AM 52.2 °F - 30.9 °F 44% 30.10 in 10.0 mi NNE 10.4 mph - N/A   Clear
3:55 AM 51.1 °F - 30.2 °F 45% 30.10 in 10.0 mi NNE 15.0 mph 20.7 mph N/A   Clear
4:15 AM 50.5 °F - 30.2 °F 46% 30.10 in 10.0 mi NNE 16.1 mph 24.2 mph N/A   Clear
4:35 AM 50.4 °F - 30.2 °F 46% 30.10 in 10.0 mi NNE 16.1 mph 21.9 mph N/A   Clear
4:55 AM 50.2 °F - 30.6 °F 47% 30.10 in 10.0 mi NNE 15.0 mph 24.2 mph N/A   Clear
5:15 AM 50.4 °F - 30.7 °F 47% 30.10 in 10.0 mi North 10.4 mph 19.6 mph N/A   Clear
5:35 AM 49.1 °F - 30.0 °F 48% 30.11 in 10.0 mi NNE 4.6 mph - N/A   Clear
5:55 AM 49.1 °F - 30.4 °F 49% 30.11 in 10.0 mi NNE 5.8 mph - N/A   Clear
6:15 AM 48.6 °F - 30.2 °F 49% 30.13 in 10.0 mi ENE 4.6 mph - N/A   Clear
6:35 AM 47.8 °F - 29.8 °F 50% 30.14 in 10.0 mi East 6.9 mph - N/A   Clear
6:55 AM 46.8 °F - 29.1 °F 50% 30.15 in 10.0 mi East 9.2 mph - N/A   Clear
7:15 AM 44.8 °F 39.0 °F 28.0 °F 52% 30.16 in 10.0 mi ENE 11.5 mph - N/A   Clear
7:35 AM 44.6 °F 40.7 °F 27.5 °F 51% 30.16 in 10.0 mi NNE 6.9 mph - N/A   Clear
7:55 AM 45.5 °F 41.3 °F 27.3 °F 49% 30.16 in 10.0 mi NE 8.1 mph - N/A   Clear
8:15 AM 46.8 °F - 27.3 °F 47% 30.18 in 10.0 mi ENE 16.1 mph 20.7 mph N/A   Clear
8:35 AM 45.9 °F 39.4 °F 26.2 °F 46% 30.18 in 10.0 mi NE 15.0 mph 20.7 mph N/A   Clear
8:55 AM 44.8 °F 38.3 °F 25.2 °F 46% 30.19 in 10.0 mi NE 13.8 mph - N/A   Clear
9:15 AM 45.5 °F 39.6 °F 24.6 °F 44% 30.20 in 10.0 mi NE 12.7 mph - N/A   Clear
9:35 AM 46.2 °F 40.5 °F 24.4 °F 42% 30.19 in 10.0 mi NE 12.7 mph 20.7 mph N/A   Clear
9:55 AM 48.4 °F - 25.5 °F 41% 30.19 in 10.0 mi NE 20.7 mph 24.2 mph N/A   Clear
10:15 AM 48.7 °F - 25.9 °F 41% 30.20 in 10.0 mi ENE 18.4 mph 24.2 mph N/A   Clear
10:35 AM 50.4 °F - 26.4 °F 39% 30.20 in 10.0 mi NE 17.3 mph 23.0 mph N/A   Clear
10:55 AM 50.7 °F - 26.4 °F 39% 30.20 in 10.0 mi NE 12.7 mph 19.6 mph N/A   Scattered Clouds
11:15 AM 52.0 °F - 26.6 °F 37% 30.20 in 10.0 mi ENE 11.5 mph 17.3 mph N/A   Mostly Cloudy
11:35 AM 52.3 °F - 27.1 °F 38% 30.19 in 10.0 mi ENE 15.0 mph 19.6 mph N/A   Overcast
11:55 AM 53.8 °F - 27.5 °F 36% 30.18 in 10.0 mi NE 13.8 mph 23.0 mph N/A   Overcast
12:15 PM 54.9 °F - 27.1 °F 34% 30.16 in 10.0 mi NNE 13.8 mph 19.6 mph N/A   Mostly Cloudy
12:35 PM 56.7 °F - 27.5 °F 33% 30.14 in 10.0 mi NE 12.7 mph - N/A   Scattered Clouds
12:55 PM 58.3 °F - 28.0 °F 32% 30.13 in 10.0 mi NE 13.8 mph 18.4 mph N/A   Clear
1:15 PM 59.5 °F - 28.6 °F 31% 30.11 in 10.0 mi NE 12.7 mph 21.9 mph N/A   Clear
1:35 PM 59.4 °F - 28.2 °F 31% 30.11 in 10.0 mi NE 10.4 mph 17.3 mph N/A   Clear
1:55 PM 61.0 °F - 28.6 °F 29% 30.08 in 10.0 mi NE 13.8 mph 20.7 mph N/A   Clear
2:15 PM 61.0 °F - 28.8 °F 30% 30.06 in 10.0 mi ENE 10.4 mph 21.9 mph N/A   Clear
2:35 PM 61.7 °F - 29.3 °F 29% 30.06 in 10.0 mi NE 12.7 mph 19.6 mph N/A   Clear
2:55 PM 63.1 °F - 29.7 °F 28% 30.04 in 10.0 mi NE 12.7 mph 17.3 mph N/A   Clear
3:15 PM 62.6 °F - 29.7 °F 29% 30.02 in 10.0 mi NE 15.0 mph 19.6 mph N/A   Clear
3:35 PM 61.7 °F - 29.7 °F 30% 30.02 in 10.0 mi ENE 10.4 mph 19.6 mph N/A   Clear
3:55 PM 61.2 °F - 29.1 °F 30% 30.01 in 10.0 mi NE 15.0 mph 19.6 mph N/A   Clear
4:15 PM 61.0 °F - 28.4 °F 29% 30.00 in 10.0 mi NE 15.0 mph 21.9 mph N/A   Clear
4:35 PM 60.8 °F - 28.4 °F 29% 30.00 in 10.0 mi NE 12.7 mph 23.0 mph N/A   Clear
4:55 PM 62.2 °F - 28.4 °F 28% 30.00 in 10.0 mi NNE 17.3 mph 23.0 mph N/A   Clear
5:15 PM 59.9 °F - 28.2 °F 30% 30.02 in 10.0 mi NE 13.8 mph 20.7 mph N/A   Clear
5:35 PM 59.4 °F - 28.4 °F 31% 30.01 in 10.0 mi NE 16.1 mph 20.7 mph N/A   Clear
5:55 PM 59.0 °F - 28.0 °F 31% 30.01 in 10.0 mi NE 17.3 mph 24.2 mph N/A   Clear
6:15 PM 58.3 °F - 28.2 °F 32% 30.02 in 10.0 mi NNE 15.0 mph 19.6 mph N/A   Clear
6:35 PM 57.7 °F - 28.0 °F 32% 30.03 in 10.0 mi NE 12.7 mph 18.4 mph N/A   Clear
6:55 PM 56.8 °F - 27.5 °F 33% 29.98 in 10.0 mi NE 18.4 mph 26.5 mph N/A   Clear
7:15 PM 55.8 °F - 27.5 °F 34% 30.00 in 10.0 mi NE 18.4 mph 23.0 mph N/A   Clear
7:35 PM 55.0 °F - 26.6 °F 33% 30.02 in 10.0 mi NNE 12.7 mph 18.4 mph N/A   Clear
7:55 PM 54.5 °F - 26.2 °F 34% 30.03 in 10.0 mi NNE 16.1 mph 21.9 mph N/A   Clear
8:15 PM 53.8 °F - 26.6 °F 35% 30.04 in 10.0 mi NNE 12.7 mph 21.9 mph N/A   Clear
8:35 PM 54.0 °F - 26.1 °F 34% 30.04 in 10.0 mi NNE 13.8 mph 19.6 mph N/A   Clear
8:55 PM 53.6 °F - 25.5 °F 34% 30.05 in 10.0 mi NNE 10.4 mph 19.6 mph N/A   Clear
9:15 PM 53.1 °F - 25.3 °F 34% 30.06 in 10.0 mi NNE 12.7 mph 17.3 mph N/A   Clear
9:35 PM 52.0 °F - 24.1 °F 34% 30.06 in 10.0 mi NE 12.7 mph 18.4 mph N/A   Clear
9:55 PM 51.1 °F - 23.0 °F 33% 30.07 in 10.0 mi NE 11.5 mph 18.4 mph N/A   Clear
10:15 PM 50.4 °F - 22.8 °F 34% 30.07 in 10.0 mi NE 16.1 mph - N/A   Clear
10:35 PM 49.3 °F - 22.1 °F 34% 30.07 in 10.0 mi NE 12.7 mph 17.3 mph N/A   Scattered Clouds
10:55 PM 48.6 °F - 21.4 °F 34% 30.07 in 10.0 mi NE 15.0 mph 23.0 mph N/A   Mostly Cloudy
11:15 PM 48.2 °F - 20.3 °F 33% 30.07 in 10.0 mi NE 16.1 mph 20.7 mph N/A   Scattered Clouds
11:35 PM 47.3 °F - 19.4 °F 33% 30.06 in 10.0 mi NE 13.8 mph 20.7 mph N/A   Clear
11:55 PM 46.4 °F 40.7 °F 19.2 °F 34% 30.07 in 10.0 mi NE 12.7 mph 17.3 mph N/A   Clear